Location: Heidgraben
(53.7081°N, 9.6576°E)
Time: 22:56:11
(UTC+00:00)

Cosmos 2333 Rocket - Pass Details

Date: 28 October 2020
Orbit: 841 x 861 km, 70.8° (Epoch: 28 November)

Event Time Altitude Azimuth Distance (km) Brightness Sun altitude
Exits shadow 02:26:59 13° 347° (NNW) 2,271 4.5 -33.5°
Maximum altitude 02:28:20 14° 3° (N) 2,207 4.6 -33.3°
Drops below altitude 10° 02:31:15 10° 34° (NE) 2,481 5.3 -32.9°
Sets 02:35:03 0° 59° (ENE) 3,412 6.5 -32.4°
